| time (UTC) | temp F | wind direction | speed MPH | gust MPH | rain 1hr in | rain 24hr in | rain mn in | humidity % | barometer mb |
| 20260505053048 | 54 | 159 | 0.0 | 2.0 | 0.00 | 0.00 | 0.00 | 62 | 1012.5 |
| 20260505052547 | 53 | 159 | 0.0 | 2.0 | 0.00 | 0.00 | 0.00 | 58 | 1012.5 |
| 20260505052046 | 53 | 159 | 0.0 | 2.0 | 0.00 | 0.00 | 0.00 | 61 | 1012.6 |
| 20260505051544 | 52 | 159 | 0.0 | 3.0 | 0.00 | 0.00 | 0.00 | 60 | 1012.6 |
| 20260505051043 | 52 | 159 | 0.0 | 2.0 | 0.00 | 0.00 | 0.00 | 61 | 1012.7 |
| 20260505050542 | 51 | 159 | 1.0 | 2.0 | 0.00 | 0.00 | 0.00 | 62 | 1012.8 |
| 20260505041532 | 49 | 309 | 1.0 | 3.0 | 0.00 | 0.00 | 0.00 | 64 | 1012.9 |
| 20260505041030 | 49 | 309 | 1.0 | 2.0 | 0.00 | 0.00 | 0.00 | 64 | 1012.9 |
| 20260505040529 | 50 | 309 | 0.0 | 2.0 | 0.00 | 0.00 | 0.00 | 63 | 1012.9 |
| 20260505040030 | 49 | 309 | 0.0 | 1.0 | 0.00 | 0.00 | 0.00 | 63 | 1012.8 |
| 20260505035527 | 49 | 309 | 0.0 | 2.0 | 0.00 | 0.00 | 0.00 | 63 | 1012.8 |
| 20260505035026 | 50 | 309 | 0.0 | 2.0 | 0.00 | 0.00 | 0.00 | 63 | 1012.8 |
| 20260505034527 | 50 | 159 | 0.0 | 2.0 | 0.00 | 0.00 | 0.00 | 62 | 1012.8 |
| 20260505034024 | 50 | 159 | 1.0 | 2.0 | 0.00 | 0.00 | 0.00 | 61 | 1012.8 |
| 20260505033524 | 51 | 159 | 0.0 | 2.0 | 0.00 | 0.00 | 0.00 | 61 | 1012.8 |
| 20260505033024 | 51 | 159 | 0.0 | 3.0 | 0.00 | 0.00 | 0.00 | 61 | 1012.7 |
| 20260505032523 | 51 | 159 | 2.0 | 3.0 | 0.00 | 0.00 | 0.00 | 61 | 1012.8 |
| 20260505032024 | 51 | 162 | 1.0 | 2.0 | 0.00 | 0.00 | 0.00 | 61 | 1012.8 |
| 20260505031521 | 51 | 162 | 1.0 | 2.0 | 0.00 | 0.00 | 0.00 | 60 | 1012.9 |
| 20260505031021 | 51 | 162 | 1.0 | 2.0 | 0.00 | 0.00 | 0.00 | 59 | 1012.9 |
| 20260505030522 | 51 | 162 | 0.0 | 2.0 | 0.00 | 0.00 | 0.00 | 59 | 1012.9 |
| 20260505030037 | 51 | 162 | 0.0 | 2.0 | 0.00 | 0.00 | 0.00 | 59 | 1012.9 |
| 20260505025519 | 51 | 162 | 0.0 | 2.0 | 0.00 | 0.00 | 0.00 | 59 | 1013.0 |
| 20260505025017 | 52 | 162 | 0.0 | 2.0 | 0.00 | 0.00 | 0.00 | 59 | 1013.0 |
| 20260505024518 | 52 | 162 | 0.0 | 2.0 | 0.00 | 0.00 | 0.00 | 59 | 1013.0 |
| 20260505024016 | 52 | 162 | 1.0 | 2.0 | 0.00 | 0.00 | 0.00 | 58 | 1013.0 |
| 20260505023515 | 52 | 162 | 1.0 | 2.0 | 0.00 | 0.00 | 0.00 | 58 | 1013.1 |
| 20260505023015 | 52 | 162 | 0.0 | 2.0 | 0.00 | 0.00 | 0.00 | 58 | 1013.2 |
| 20260505022515 | 52 | 162 | 0.0 | 2.0 | 0.00 | 0.00 | 0.00 | 58 | 1013.2 |
| 20260505022014 | 52 | 162 | 0.0 | 2.0 | 0.00 | 0.00 | 0.00 | 57 | 1013.2 |
| 20260505021518 | 52 | 162 | 0.0 | 2.0 | 0.00 | 0.00 | 0.00 | 58 | 1013.3 |
| 20260505021012 | 52 | 162 | 0.0 | 2.0 | 0.00 | 0.00 | 0.00 | 58 | 1013.3 |
| 20260505020511 | 53 | 162 | 0.0 | 0.0 | 0.00 | 0.00 | 0.00 | 58 | 1013.4 |
| 20260505020011 | 53 | 162 | 0.0 | 2.0 | 0.00 | 0.00 | 0.00 | 56 | 1013.4 |
| 20260505015511 | 53 | 162 | 0.0 | 2.0 | 0.00 | 0.00 | 0.00 | 56 | 1013.4 |
| 20260505015010 | 53 | 162 | 0.0 | 3.0 | 0.00 | 0.00 | 0.00 | 56 | 1013.4 |
| 20260505014515 | 54 | 162 | 1.0 | 2.0 | 0.00 | 0.00 | 0.00 | 55 | 1013.4 |
| 20260505014008 | 54 | 162 | 0.0 | 3.0 | 0.00 | 0.00 | 0.00 | 55 | 1013.4 |
| 20260505013508 | 55 | 162 | 1.0 | 3.0 | 0.00 | 0.00 | 0.00 | 52 | 1013.4 |
| 20260505013016 | 54 | 162 | 0.0 | 2.0 | 0.00 | 0.00 | 0.00 | 53 | 1013.5 |
| 20260505012508 | 54 | 162 | 0.0 | 4.0 | 0.00 | 0.00 | 0.00 | 55 | 1013.5 |
| 20260505012008 | 54 | 162 | 2.0 | 4.0 | 0.00 | 0.00 | 0.00 | 55 | 1013.5 |
| 20260505011506 | 54 | 180 | 2.0 | 3.0 | 0.00 | 0.00 | 0.00 | 55 | 1013.6 |
| 20260505011005 | 54 | 208 | 0.0 | 0.0 | 0.00 | 0.00 | 0.00 | 56 | 1013.6 |
| 20260505010504 | 54 | 208 | 0.0 | 1.0 | 0.00 | 0.00 | 0.00 | 55 | 1013.6 |
| 20260505010005 | 55 | 208 | 0.0 | 1.0 | 0.00 | 0.00 | 0.00 | 52 | 1013.7 |
| 20260505005507 | 55 | 208 | 0.0 | 2.0 | 0.00 | 0.00 | 0.00 | 53 | 1013.7 |
| 20260505005004 | 55 | 208 | 0.0 | 2.0 | 0.00 | 0.00 | 0.00 | 53 | 1013.7 |
| 20260505004508 | 55 | 208 | 0.0 | 2.0 | 0.00 | 0.00 | 0.00 | 53 | 1013.7 |
| 20260505004002 | 55 | 208 | 0.0 | 2.0 | 0.00 | 0.00 | 0.00 | 53 | 1013.8 |
| 20260505003501 | 55 | 208 | 1.0 | 2.0 | 0.00 | 0.00 | 0.00 | 53 | 1013.8 |
| 20260505003102 | 56 | 208 | 1.0 | 2.0 | 0.00 | 0.00 | 0.00 | 51 | 1013.8 |
| 20260505002602 | 56 | 208 | 0.0 | 2.0 | 0.00 | 0.00 | 0.00 | 51 | 1013.8 |
| 20260505002059 | 56 | 208 | 0.0 | 2.0 | 0.00 | 0.00 | 0.00 | 50 | 1013.9 |
| 20260505001559 | 56 | 208 | 0.0 | 2.0 | 0.00 | 0.00 | 0.00 | 49 | 1013.9 |
| 20260505001058 | 56 | 208 | 0.0 | 2.0 | 0.00 | 0.00 | 0.00 | 50 | 1013.9 |
| 20260505000558 | 57 | 208 | 0.0 | 3.0 | 0.00 | 0.00 | 0.00 | 50 | 1014.1 |
| 20260505000112 | 57 | 208 | 1.0 | 3.0 | 0.00 | 0.00 | 0.00 | 49 | 1014.1 |
| 20260504235556 | 57 | 208 | 1.0 | 2.0 | 0.00 | 0.00 | 0.00 | 48 | 1014.1 |
| 20260504235058 | 57 | 208 | 1.0 | 2.0 | 0.00 | 0.00 | 0.00 | 48 | 1014.0 |
| 20260504234556 | 57 | 208 | 1.0 | 2.0 | 0.00 | 0.00 | 0.00 | 48 | 1014.0 |
| 20260504234058 | 56 | 208 | 0.0 | 2.0 | 0.00 | 0.00 | 0.00 | 50 | 1014.1 |
| 20260504233555 | 56 | 208 | 0.0 | 2.0 | 0.00 | 0.00 | 0.00 | 50 | 1014.2 |
| 20260504233054 | 57 | 208 | 0.0 | 2.0 | 0.00 | 0.00 | 0.00 | 50 | 1014.2 |
| 20260504232554 | 57 | 208 | 0.0 | 2.0 | 0.00 | 0.00 | 0.00 | 48 | 1014.2 |
| 20260504232054 | 57 | 208 | 0.0 | 2.0 | 0.00 | 0.00 | 0.00 | 48 | 1014.2 |
| 20260504231619 | 57 | 208 | 0.0 | 2.0 | 0.00 | 0.00 | 0.00 | 48 | 1014.3 |
| 20260504231050 | 58 | 208 | 0.0 | 2.0 | 0.00 | 0.00 | 0.00 | 46 | 1014.3 |
| 20260504230550 | 58 | 208 | 0.0 | 2.0 | 0.00 | 0.00 | 0.00 | 46 | 1014.3 |
| 20260504230050 | 58 | 208 | 0.0 | 2.0 | 0.00 | 0.00 | 0.00 | 45 | 1014.3 |
| 20260504225549 | 58 | 208 | 0.0 | 2.0 | 0.00 | 0.00 | 0.00 | 46 | 1014.3 |
| 20260504225051 | 58 | 208 | 0.0 | 2.0 | 0.00 | 0.00 | 0.00 | 46 | 1014.4 |
| 20260504224547 | 58 | 208 | 0.0 | 2.0 | 0.00 | 0.00 | 0.00 | 47 | 1014.4 |
| 20260504224046 | 58 | 208 | 0.0 | 2.0 | 0.00 | 0.00 | 0.00 | 46 | 1014.5 |
| 20260504223546 | 58 | 208 | 0.0 | 2.0 | 0.00 | 0.00 | 0.00 | 47 | 1014.5 |
| 20260504223047 | 58 | 208 | 1.0 | 2.0 | 0.00 | 0.00 | 0.00 | 46 | 1014.7 |
| 20260504222545 | 58 | 208 | 0.0 | 2.0 | 0.00 | 0.00 | 0.00 | 45 | 1014.6 |
| 20260504222044 | 58 | 208 | 1.0 | 2.0 | 0.00 | 0.00 | 0.00 | 45 | 1014.7 |
| 20260504221612 | 58 | 208 | 0.0 | 1.0 | 0.00 | 0.00 | 0.00 | 46 | 1014.7 |
| 20260504221044 | 59 | 208 | 0.0 | 2.0 | 0.00 | 0.00 | 0.00 | 46 | 1014.7 |
| 20260504220543 | 59 | 208 | 1.0 | 2.0 | 0.00 | 0.00 | 0.00 | 45 | 1014.7 |
| 20260504220041 | 58 | 208 | 1.0 | 2.0 | 0.00 | 0.00 | 0.00 | 45 | 1014.7 |
| 20260504215543 | 58 | 208 | 1.0 | 2.0 | 0.00 | 0.00 | 0.00 | 47 | 1014.7 |
| 20260504215040 | 59 | 208 | 0.0 | 2.0 | 0.00 | 0.00 | 0.00 | 46 | 1014.7 |
| 20260504214540 | 59 | 208 | 0.0 | 2.0 | 0.00 | 0.00 | 0.00 | 46 | 1014.8 |
| 20260504214040 | 59 | 208 | 0.0 | 2.0 | 0.00 | 0.00 | 0.00 | 44 | 1014.8 |
| 20260504213541 | 59 | 208 | 1.0 | 2.0 | 0.00 | 0.00 | 0.00 | 43 | 1014.8 |
| 20260504213044 | 59 | 208 | 1.0 | 2.0 | 0.00 | 0.00 | 0.00 | 45 | 1014.8 |
| 20260504212541 | 58 | 208 | 0.0 | 2.0 | 0.00 | 0.00 | 0.00 | 45 | 1014.9 |
| 20260504212041 | 59 | 208 | 0.0 | 2.0 | 0.00 | 0.00 | 0.00 | 47 | 1014.9 |
| 20260504211540 | 59 | 208 | 0.0 | 2.0 | 0.00 | 0.00 | 0.00 | 46 | 1014.9 |
| 20260504211040 | 59 | 208 | 0.0 | 2.0 | 0.00 | 0.00 | 0.00 | 44 | 1014.9 |
| 20260504210541 | 60 | 208 | 0.0 | 2.0 | 0.00 | 0.00 | 0.00 | 44 | 1014.9 |
| 20260504210046 | 60 | 208 | 0.0 | 2.0 | 0.00 | 0.00 | 0.00 | 44 | 1014.8 |
| 20260504205539 | 60 | 208 | 0.0 | 2.0 | 0.00 | 0.00 | 0.00 | 43 | 1014.9 |
| 20260504205039 | 60 | 208 | 0.0 | 2.0 | 0.00 | 0.00 | 0.00 | 43 | 1014.9 |
| 20260504204539 | 61 | 208 | 0.0 | 2.0 | 0.00 | 0.00 | 0.00 | 42 | 1014.9 |
| 20260504204040 | 61 | 208 | 0.0 | 2.0 | 0.00 | 0.00 | 0.00 | 41 | 1014.9 |
| 20260504203539 | 61 | 208 | 0.0 | 2.0 | 0.00 | 0.00 | 0.00 | 40 | 1014.8 |
| 20260504203039 | 62 | 208 | 0.0 | 2.0 | 0.00 | 0.00 | 0.00 | 40 | 1014.8 |
| 20260504202538 | 62 | 208 | 0.0 | 1.0 | 0.00 | 0.00 | 0.00 | 39 | 1014.8 |
| 20260504202037 | 62 | 208 | 0.0 | 2.0 | 0.00 | 0.00 | 0.00 | 38 | 1014.7 |
| 20260504201539 | 62 | 208 | 0.0 | 2.0 | 0.00 | 0.00 | 0.00 | 38 | 1014.7 |
| 20260504201040 | 62 | 208 | 0.0 | 2.0 | 0.00 | 0.00 | 0.00 | 38 | 1014.8 |
| 20260504200538 | 63 | 208 | 0.0 | 2.0 | 0.00 | 0.00 | 0.00 | 38 | 1014.7 |
| 20260504200039 | 62 | 208 | 0.0 | 2.0 | 0.00 | 0.00 | 0.00 | 38 | 1014.7 |
| 20260504195536 | 63 | 208 | 0.0 | 2.0 | 0.00 | 0.00 | 0.00 | 40 | 1014.7 |
| 20260504195037 | 63 | 208 | 0.0 | 2.0 | 0.00 | 0.00 | 0.00 | 39 | 1014.7 |
| 20260504194542 | 63 | 208 | 0.0 | 2.0 | 0.00 | 0.00 | 0.00 | 38 | 1014.7 |
| 20260504194040 | 64 | 208 | 0.0 | 2.0 | 0.00 | 0.00 | 0.00 | 37 | 1014.7 |
| 20260504193536 | 64 | 208 | 0.0 | 2.0 | 0.00 | 0.00 | 0.00 | 37 | 1014.6 |
| 20260504193043 | 65 | 208 | 0.0 | 2.0 | 0.00 | 0.00 | 0.00 | 34 | 1014.6 |
| 20260504192536 | 65 | 208 | 0.0 | 2.0 | 0.00 | 0.00 | 0.00 | 34 | 1014.6 |
| 20260504192036 | 65 | 208 | 0.0 | 2.0 | 0.00 | 0.00 | 0.00 | 33 | 1014.5 |
| 20260504191604 | 66 | 208 | 0.0 | 3.0 | 0.00 | 0.00 | 0.00 | 33 | 1014.5 |
| 20260504191036 | 66 | 208 | 0.0 | 3.0 | 0.00 | 0.00 | 0.00 | 32 | 1014.5 |
| 20260504190536 | 66 | 208 | 0.0 | 2.0 | 0.00 | 0.00 | 0.00 | 33 | 1014.4 |
| 20260504190039 | 67 | 208 | 0.0 | 2.0 | 0.00 | 0.00 | 0.00 | 32 | 1014.4 |
| 20260504185534 | 67 | 208 | 0.0 | 2.0 | 0.00 | 0.00 | 0.00 | 31 | 1014.3 |
| 20260504185034 | 67 | 208 | 0.0 | 2.0 | 0.00 | 0.00 | 0.00 | 31 | 1014.3 |
| 20260504184544 | 67 | 209 | 0.0 | 2.0 | 0.00 | 0.00 | 0.00 | 32 | 1014.2 |
| 20260504184034 | 67 | 209 | 0.0 | 2.0 | 0.00 | 0.00 | 0.00 | 32 | 1014.2 |
| 20260504183535 | 67 | 209 | 0.0 | 2.0 | 0.00 | 0.00 | 0.00 | 30 | 1014.1 |
| 20260504183035 | 67 | 209 | 0.0 | 2.0 | 0.00 | 0.00 | 0.00 | 31 | 1014.1 |
| 20260504182534 | 67 | 209 | 0.0 | 2.0 | 0.00 | 0.00 | 0.00 | 31 | 1014.1 |
| 20260504182034 | 67 | 209 | 0.0 | 2.0 | 0.00 | 0.00 | 0.00 | 32 | 1014.1 |
| 20260504181534 | 68 | 209 | 0.0 | 2.0 | 0.00 | 0.00 | 0.00 | 31 | 1014.1 |
| 20260504181034 | 68 | 292 | 0.0 | 2.0 | 0.00 | 0.00 | 0.00 | 32 | 1014.1 |
| 20260504180534 | 69 | 294 | 0.0 | 2.0 | 0.00 | 0.00 | 0.00 | 30 | 1014.0 |
| 20260504180036 | 69 | 294 | 0.0 | 2.0 | 0.00 | 0.00 | 0.00 | 32 | 1014.0 |
| 20260504175533 | 70 | 294 | 0.0 | 2.0 | 0.00 | 0.00 | 0.00 | 32 | 1013.9 |
| 20260504175033 | 70 | 294 | 0.0 | 2.0 | 0.00 | 0.00 | 0.00 | 28 | 1013.9 |
| 20260504174533 | 70 | 294 | 0.0 | 2.0 | 0.00 | 0.00 | 0.00 | 27 | 1013.8 |
| 20260504174033 | 70 | 294 | 0.0 | 4.0 | 0.00 | 0.00 | 0.00 | 26 | 1013.7 |
| 20260504173532 | 70 | 294 | 1.0 | 6.0 | 0.00 | 0.00 | 0.00 | 26 | 1013.7 |
| 20260504173033 | 70 | 202 | 0.0 | 6.0 | 0.00 | 0.00 | 0.00 | 24 | 1013.7 |
| 20260504172534 | 70 | 266 | 1.0 | 4.0 | 0.00 | 0.00 | 0.00 | 26 | 1013.8 |
| 20260504172034 | 71 | 262 | 2.0 | 4.0 | 0.00 | 0.00 | 0.00 | 29 | 1013.7 |
| 20260504171534 | 71 | 276 | 1.0 | 3.0 | 0.00 | 0.00 | 0.00 | 25 | 1013.7 |
| 20260504171032 | 71 | 224 | 0.0 | 2.0 | 0.00 | 0.00 | 0.00 | 26 | 1013.7 |
| 20260504170533 | 71 | 224 | 1.0 | 2.0 | 0.00 | 0.00 | 0.00 | 25 | 1013.7 |
| 20260504151028 | 73 | 280 | 4.0 | 6.0 | 0.00 | 0.00 | 0.00 | 27 | 1013.4 |
| 20260504150531 | 73 | 137 | 0.0 | 2.0 | 0.00 | 0.00 | 0.00 | 28 | 1013.4 |
| 20260504141027 | 75 | 246 | 0.0 | 3.0 | 0.00 | 0.00 | 0.00 | 25 | 1013.6 |
| 20260504140523 | 74 | 185 | 0.0 | 5.0 | 0.00 | 0.00 | 0.00 | 28 | 1013.6 |
| 20260504130516 | 74 | 304 | 2.0 | 7.0 | 0.00 | 0.00 | 0.00 | 34 | 1013.7 |
| 20260504110502 | 71 | 325 | 2.0 | 9.0 | 0.00 | 0.00 | 0.00 | 41 | 1014.9 |
| 20260504100550 | 70 | 275 | 4.0 | 10.0 | 0.00 | 0.00 | 0.00 | 43 | 1015.8 |
| 20260504081526 | 64 | 309 | 4.0 | 8.0 | 0.00 | 0.00 | 0.00 | 52 | 1017.2 |
| 20260504081030 | 65 | 304 | 5.0 | 8.0 | 0.00 | 0.00 | 0.00 | 49 | 1017.2 |
| 20260504080526 | 64 | 299 | 2.0 | 5.0 | 0.00 | 0.00 | 0.00 | 52 | 1017.2 |
| 20260504060107 | 57 | 141 | 0.0 | 2.0 | 0.00 | 0.00 | 0.00 | 62 | 1018.1 |